Lexington Weather

Lexington, Massachusetts, USA

50°F
12/8/2022 2:01pm 
  • Lexington Conditions: Clear
  • Temperature: 49.8°F / 9.9°CColder 0.7°F than last hour.
  • Dew Point: 36.1°FDecreased 0.2°Fsince last hour.
  • Relative Humidity: 59%Increased 1.0% since last hour.
  • Wind: Wind from N N 4 mph, 10-min avg: 3 mph, gust: 10 mph
  • Barometer: 30.06 in Steady
  • Visibility: 10 miles
  • Rain Today: 0.00 in
  •   

Warning: Undefined variable $rc in /homepages/6/d276339138/htdocs/weather/20190804/ssi/nwsProduct.php on line 323

Warning: Undefined variable $rc in /homepages/6/d276339138/htdocs/weather/20190804/ssi/nwsProduct.php on line 325

Warning: Undefined variable $rc in /homepages/6/d276339138/htdocs/weather/20190804/ssi/nwsProduct.php on line 323

Warning: Undefined variable $rc in /homepages/6/d276339138/htdocs/weather/20190804/ssi/nwsProduct.php on line 325

Warning: Undefined variable $rc in /homepages/6/d276339138/htdocs/weather/20190804/ssi/nwsProduct.php on line 323

Warning: Undefined variable $rc in /homepages/6/d276339138/htdocs/weather/20190804/ssi/nwsProduct.php on line 325

Warning: Undefined variable $rc in /homepages/6/d276339138/htdocs/weather/20190804/ssi/nwsProduct.php on line 323

Warning: Undefined variable $rc in /homepages/6/d276339138/htdocs/weather/20190804/ssi/nwsProduct.php on line 325

Warning: Undefined variable $rc in /homepages/6/d276339138/htdocs/weather/20190804/ssi/nwsProduct.php on line 323

Warning: Undefined variable $rc in /homepages/6/d276339138/htdocs/weather/20190804/ssi/nwsProduct.php on line 325

Warning: Undefined variable $rc in /homepages/6/d276339138/htdocs/weather/20190804/ssi/nwsProduct.php on line 323

Warning: Undefined variable $rc in /homepages/6/d276339138/htdocs/weather/20190804/ssi/nwsProduct.php on line 325

Warning: Undefined variable $rc in /homepages/6/d276339138/htdocs/weather/20190804/ssi/nwsProduct.php on line 323

Warning: Undefined variable $rc in /homepages/6/d276339138/htdocs/weather/20190804/ssi/nwsProduct.php on line 325

Regional Weather Roundup
for Boston, MA

        
000
ASUS41 KBOX 051410
RWRBOX

REGIONAL WEATHER ROUNDUP
NATIONAL WEATHER SERVICE BOSTON/NORTON MA
900 AM EST MON DEC 05 2022

NOTE:  "FAIR" INDICATES FEW OR NO CLOUDS BELOW 12,000 FEET WITH NO 
SIGNIFICANT WEATHER AND/OR OBSTRUCTIONS TO VISIBILITY.

MAZALL-051500-
EASTERN MASSACHUSETTS
  
CITY           SKY/WX    TMP DP  RH WIND       PRES   REMARKS
BOSTON         MOSUNNY   38  27  64 S12       30.29R WCI  30          
BEVERLY        SUNNY     37  29  72 S7        30.28R WCI  32          
LAWRENCE       SUNNY     33  25  72 SW6       30.29S WCI  28          
BEDFORD        SUNNY     33  27  78 CALM      30.27R                  
NORWOOD        SUNNY     35  30  82 CALM      30.29S                  
MARSHFIELD       N/A     36  30  80 S5        30.31R WCI  32          
PLYMOUTH       SUNNY     37  30  75 SE3       30.30R                  
TAUNTON          N/A    N/A N/A N/A MISG      30.29R                  
NEW BEDFORD    SUNNY     35  33  92 CALM      30.30R                  
$$

MAZALL-051500-
CAPE COD AND THE ISLANDS
  
CITY           SKY/WX    TMP DP  RH WIND       PRES   REMARKS
FALMOUTH       SUNNY     36  32  87 CALM      30.31R                  
HYANNIS        SUNNY     39  33  79 CALM      30.31R                  
CHATHAM        SUNNY     44  31  60 S3        30.33R                  
PROVINCETOWN   SUNNY     43  27  53 S9        30.32R                  
NANTUCKET      SUNNY     46  33  60 SE7       30.32R                  
MARTHAS VNYRD  SUNNY     43  35  73 CALM      30.31R                  
$$
 
MAZALL-051500-
CENTRAL AND WESTERN MASSACHUSETTS
  
CITY           SKY/WX    TMP DP  RH WIND       PRES   REMARKS
WORCESTER      SUNNY     36  26  67 SW9       30.23R WCI  29          
FITCHBURG      SUNNY     29  23  78 CALM      30.27R                  
ORANGE         SUNNY     25  21  85 CALM      30.26R                  
SPRINGFIELD    MOSUNNY   26  26  99 CALM      30.25R                  
WESTFIELD      SUNNY     26  23  88 CALM      30.27R                  
NORTH ADAMS    SUNNY     27  21  78 SE7       30.22S WCI  19          
PITTSFIELD     SUNNY     25  21  85 CALM      30.19R                  
$$
 
RIZALL-051500-
RHODE ISLAND
  
CITY           SKY/WX    TMP DP  RH WIND       PRES   REMARKS
PROVIDENCE     MOSUNNY   33  27  78 CALM      30.30R                  
NEWPORT        SUNNY     42  29  59 S7        30.29R                  
BLOCK ISLAND   SUNNY     44  29  55 S10       30.30R                  
SMITHFIELD     SUNNY     36  29  75 CALM      30.28R                  
WESTERLY       SUNNY     32  28  85 CALM      30.29R                  
$$
 
CTZALL-051500-
CONNECTICUT
  
CITY           SKY/WX    TMP DP  RH WIND       PRES   REMARKS
BRADLEY INTL   SUNNY     31  25  78 CALM      30.27R                  
HARTFORD       SUNNY     31  26  82 CALM      30.29R                  
BRIDGEPORT     SUNNY     38  29  70 CALM      30.29R                  
DANBURY        SUNNY     29  23  78 CALM      30.28R                  
GROTON         SUNNY     37  29  72 N3        30.30R                  
NEW HAVEN      SUNNY     37  32  82 CALM      30.28R                  
CHESTER        FAIR      41  30  65 SW6       30.27R                  
MERIDEN        SUNNY     29  25  85 CALM      30.29R                  
WILLIMANTIC    SUNNY     25  23  92 CALM      30.30R                  
OXFORD         SUNNY     33  24  69 CALM      30.26R                  
$$

MEZ002-015-021-024-NHZ003-005-008-011-012-014-VTZ005-008-051500-
NORTHERN NEW ENGLAND
  
CITY           SKY/WX    TMP DP  RH WIND       PRES   REMARKS
PORTLAND ME    SUNNY     34  23  64 SW5       30.27R WCI  30          
BANGOR ME      MOSUNNY   33  25  72 S6        30.24S WCI  28          
CONCORD NH     SUNNY     29  24  82 SE8       30.26R WCI  21          
MANCHESTER NH  MOSUNNY   30  23  75 CALM      30.25R                  
NASHUA NH      SUNNY     31  28  89 E3        30.28R                  
PORTSMOUTH NH  SUNNY     35  25  67 SW3       30.27R                  
JAFFREY NH     SUNNY     32  24  72 SW3       30.22R                  
KEENE NH       SUNNY     29  26  89 CALM        N/A                   
BURLINGTON VT  SUNNY     35  20  54 S18G26    30.11S WCI  24          
MT. WASHINGTON MOSUNNY   16   5  62 W51         N/A  WCI  -9          
$$

NYZ052-076-051500-
EASTERN NEW YORK
  
CITY           SKY/WX    TMP DP  RH WIND       PRES   REMARKS
ALBANY         MOSUNNY   31  22  69 S7        30.22R WCI  24          
NEW YORK CITY  MOSUNNY   40  23  50 S6        30.29R                  
$$
 
ANZALL-051500-
MARINE OBSERVATIONS
  
STATION/POSITION TIME  TEMP    WIND        PRES    VSBY  WAVE
                       AIR SEA DIR/SP/G                  HT/PER
                 (UTC) (F)     (DEG/KT/KT) (MB)    (MI)  (FT/S)
BOSTON BUOY      1350      51  180/ 12/ 14 1026.2R         2/10
BUZZARDS BAY     1300   44     170/  7/  9 1026.1R
NANTUCKET SOUND  1350   45 49  140/ 10/ 12 1026.6R         1
MASS BAY-STELLWA 1204   42 50  200/ 12/ 14 1024.0R  1 7/8  2/ 3
ISLE OF SHOALS   1300   41     200/ 19/ 21 1024.2R
S OF BLOCK IS    1356      55                N/A           2/10
$$

......................KEY.........................
  SKY/WX - SKY CONDITION/PRESENT WEATHER
  TMP    - TEMPERATURE IN FAHRENHEIT
  DWPT   - DEWPOINT IN FAHRENHEIT
  RH     - RELATIVE HUMIDITY IN PERCENT
  WIND   - DIRECTION AND SPEED IN MPH
  PRES   - MEAN SEA LEVEL PRESSURE IN INCHES OF HG
  WCI    - WIND CHILL INDEX
  VSB    - VISIBILITY IN MILES
  HX     - HEAT INDEX
  TC     - TEMPERATURE IN CELSIUS
  VRB    - VARIABLE WIND DIRECTION
  N/A    - NOT AVAILABLE
  
      

Other recent Regional Weather Roundups

Thu Dec 8, 1:10pm

Thu Dec 8, 12:10pm

Thu Dec 8, 11:10am

Thu Dec 8, 10:10am

Thu Dec 8, 9:10am

Thu Dec 8, 8:10am

Thu Dec 8, 7:10am

Thu Dec 8, 6:10am

Thu Dec 8, 5:10am

Thu Dec 8, 4:10am

Thu Dec 8, 3:10am

Thu Dec 8, 2:10am

Thu Dec 8, 1:10am

Thu Dec 8, 12:10am

Wed Dec 7, 11:10pm

Wed Dec 7, 10:10pm

Wed Dec 7, 9:10pm

Wed Dec 7, 8:10pm

Wed Dec 7, 7:10pm

Wed Dec 7, 6:10pm

Wed Dec 7, 5:10pm

Wed Dec 7, 4:10pm

Wed Dec 7, 3:10pm

Wed Dec 7, 2:10pm

Wed Dec 7, 1:10pm

Wed Dec 7, 12:10pm

Wed Dec 7, 11:10am

Wed Dec 7, 10:10am

Wed Dec 7, 9:10am

Wed Dec 7, 8:10am

Wed Dec 7, 7:10am

Wed Dec 7, 6:10am

Wed Dec 7, 5:10am

Wed Dec 7, 4:10am

Wed Dec 7, 3:10am

Wed Dec 7, 2:10am

Wed Dec 7, 1:10am

Wed Dec 7, 12:10am

Tue Dec 6, 11:10pm

Tue Dec 6, 10:10pm

Tue Dec 6, 9:10pm

Tue Dec 6, 8:10pm

Tue Dec 6, 7:10pm

Tue Dec 6, 6:10pm

Tue Dec 6, 5:10pm

Tue Dec 6, 4:10pm

Tue Dec 6, 3:10pm

Tue Dec 6, 2:10pm

Tue Dec 6, 1:10pm

Tue Dec 6, 12:10pm

Tue Dec 6, 11:10am

Tue Dec 6, 10:10am

Tue Dec 6, 9:10am

Tue Dec 6, 8:10am

Tue Dec 6, 7:10am

Tue Dec 6, 6:10am

Tue Dec 6, 5:10am

Tue Dec 6, 4:10am

Tue Dec 6, 3:10am

Tue Dec 6, 2:10am

Tue Dec 6, 1:10am

Tue Dec 6, 12:10am

Mon Dec 5, 11:10pm

Mon Dec 5, 10:10pm

Mon Dec 5, 9:10pm

Mon Dec 5, 8:10pm

Mon Dec 5, 7:10pm

Mon Dec 5, 6:10pm

Mon Dec 5, 5:10pm

Mon Dec 5, 4:10pm

Mon Dec 5, 3:10pm

Mon Dec 5, 2:10pm

Mon Dec 5, 1:10pm

Mon Dec 5, 12:10pm

Mon Dec 5, 11:10am

Mon Dec 5, 10:10am

Mon Dec 5, 8:10am

Mon Dec 5, 7:10am

Mon Dec 5, 6:10am

Mon Dec 5, 5:10am

Mon Dec 5, 4:10am

Mon Dec 5, 3:10am

Mon Dec 5, 2:10am

Mon Dec 5, 1:10am

Mon Dec 5, 12:10am

Sun Dec 4, 11:10pm

Sun Dec 4, 10:10pm

Sun Dec 4, 9:10pm

Sun Dec 4, 8:10pm

Sun Dec 4, 7:10pm

Sun Dec 4, 6:10pm

Sun Dec 4, 5:10pm

Sun Dec 4, 4:10pm

Sun Dec 4, 3:10pm

Sun Dec 4, 2:10pm

Sun Dec 4, 1:10pm

Sun Dec 4, 12:10pm

Sun Dec 4, 11:10am

Sun Dec 4, 10:10am

Sun Dec 4, 9:10am

Sun Dec 4, 8:10am

Sun Dec 4, 7:10am

Sun Dec 4, 6:10am

Sun Dec 4, 5:10am

Sun Dec 4, 4:10am

Sun Dec 4, 3:10am

Sun Dec 4, 2:10am

Sun Dec 4, 1:10am

Sun Dec 4, 12:10am

Sat Dec 3, 11:10pm

Sat Dec 3, 10:10pm

Sat Dec 3, 9:10pm

Sat Dec 3, 8:10pm

Sat Dec 3, 7:10pm

Sat Dec 3, 6:10pm

Sat Dec 3, 5:10pm

Sat Dec 3, 4:10pm

Sat Dec 3, 3:10pm

Sat Dec 3, 2:10pm

Sat Dec 3, 1:10pm

Sat Dec 3, 12:10pm

Sat Dec 3, 11:10am

Sat Dec 3, 10:10am

Sat Dec 3, 9:10am

Sat Dec 3, 8:10am

Sat Dec 3, 7:10am

Sat Dec 3, 6:10am

Sat Dec 3, 5:10am

Sat Dec 3, 4:10am

Sat Dec 3, 3:10am

Sat Dec 3, 2:10am

Sat Dec 3, 1:10am

Sat Dec 3, 12:10am

Fri Dec 2, 11:10pm

Fri Dec 2, 10:10pm

Fri Dec 2, 9:10pm

Fri Dec 2, 8:10pm

Fri Dec 2, 7:10pm

Fri Dec 2, 6:10pm

Fri Dec 2, 5:10pm

Fri Dec 2, 4:10pm

Fri Dec 2, 3:10pm

Fri Dec 2, 2:10pm

Fri Dec 2, 1:10pm

Fri Dec 2, 12:10pm

Fri Dec 2, 11:10am

Fri Dec 2, 10:10am

Fri Dec 2, 9:10am

Fri Dec 2, 8:10am

Fri Dec 2, 7:10am

Fri Dec 2, 6:10am

Fri Dec 2, 5:10am

Fri Dec 2, 4:10am

Fri Dec 2, 3:10am

Fri Dec 2, 2:10am

Fri Dec 2, 1:10am

Fri Dec 2, 12:10am

Thu Dec 1, 11:10pm

Thu Dec 1, 10:10pm

Thu Dec 1, 9:10pm

Thu Dec 1, 8:10pm

Thu Dec 1, 7:10pm

Thu Dec 1, 6:10pm

Thu Dec 1, 5:10pm

Thu Dec 1, 4:10pm

Thu Dec 1, 3:10pm

Thu Dec 1, 2:10pm

Meta data:

ID: 5aca0eed-83f2-4cca-96fa-0e36983e87a0
Link: https://api.weather.gov/products/5aca0eed-83f2-4cca-96fa-0e36983e87a0